Regional Weather Roundup
Issued by NWS

Home | Current Version | Previous Version | Text Only | Print | Product List | Glossary On
Versions: 1 2 3 4 5 6 7 8 9 10 11 12 13 14 15 16 17 18 19 20 21 22 23 24 25 26 27 28 29 30 31 32 33 34 35 36 37 38 39 40 41 42 43 44 45 46 47 48 49 50
000
ASUS43 KDTX 220610
RWRMI
MICHIGAN HOURLY REGIONAL WEATHER ROUNDUP
NATIONAL WEATHER SERVICE DETROIT/PONTIAC MI
ISSUED BY NATIONAL WEATHER SERVICE GRAND RAPIDS MI
100 AM EST SUN JAN 22 2017

NOTE: "FAIR" INDICATES FEW OR NO CLOUDS BELOW 12,000 FEET WITH NO
SIGNIFICANT WEATHER AND/OR OBSTRUCTION TO VISIBILITY.

MIZ047>049-052>055-059>063-066>070-074>076-081>083-220700-
SOUTHEAST LOWER MICHIGAN

CITY           SKY/WX    TMP DP  RH WIND       PRES   REMARKS
ADRIAN         FOG       37  37 100 CALM      29.62F VSB 1/4
6HR MIN TEMP:  37; 6HR MAX TEMP:  48;

ALMA           FOG       40  40  99 CALM      29.60S VSB 1/4
ANN ARBOR      FOG       35  35 100 CALM      29.61F VSB 1/4
BAD AXE        FOG       43  43 100 S3        29.60F VSB 1/2
6HR MIN TEMP:  41; 6HR MAX TEMP:  44;

DETROIT CITY   FOG       40  40 100 SE3       29.62F VSB 3/4
6HR MIN TEMP:  41; 6HR MAX TEMP:  50;

DETROIT        FOG       41  41 100 CALM      29.62F VSB 1/4
6HR MIN TEMP:  40; 6HR MAX TEMP:  51;

FLINT          PTCLDY    45  45 100 S5        29.60F FOG
6HR MIN TEMP:  44; 6HR MAX TEMP:  50;

GROSSE ILE     FOG       36  36  99 CALM      29.61F VSB 1/4
6HR MIN TEMP:  36; 6HR MAX TEMP:  44;

HILLSDALE      FOG       46  46 100 CALM      29.59F VSB 1/4
HOWELL           N/A     47  46  95 S3        29.60S FOG

CITY           SKY/WX    TMP DP  RH WIND       PRES   REMARKS
JACKSON        CLOUDY    48  47  96 SW5       29.60F FOG
6HR MIN TEMP:  48; 6HR MAX TEMP:  52;

LANSING        PTCLDY    47  45  93 SW7       29.60F FOG
6HR MIN TEMP:  47; 6HR MAX TEMP:  52;

MASON          FOG       44  44 100 CALM      29.60S VSB 1/4
MONROE         FOG       39  39 100 CALM      29.61F VSB 1/4
MT. CLEMENS    FOG       35  35 100 CALM      29.61S VSB 1/2
6HR MIN TEMP:  35; 6HR MAX TEMP:  41; 6HR PCP: TRACE;

PONTIAC        FOG       40  38  93 CALM      29.60S VSB 1/4
6HR MIN TEMP:  38; 6HR MAX TEMP:  48;

PORT HOPE        N/A     39  39 100 SE7       29.59S WCI  34
6HR MIN TEMP:  36; 6HR MAX TEMP:  43;

PORT HURON     FOG       41  41 100 S5        29.63F VSB 1/4
TRI CITIES     FOG       40  40 100 W6        29.59S VSB 1/4
6HR MIN TEMP:  38; 6HR MAX TEMP:  45;

YPSILANTI      FOG       40  40 100 CALM      29.62F VSB 1/4
6HR MIN TEMP:  39; 6HR MAX TEMP:  51;

$$
MIZ043>046-050>051-056>058-064>065-071>073-077>080-220700-
SOUTHWEST LOWER MICHIGAN

CITY           SKY/WX    TMP DP  RH WIND       PRES   REMARKS
BATTLE CREEK   FOG       45  45 100 S3        29.60F VSB 1/4
6HR MIN TEMP:  44; 6HR MAX TEMP:  53;

BENTON HARBOR  FOG       37  35  92 CALM      29.59S VSB 1/4
6HR MIN TEMP:  37; 6HR MAX TEMP:  56;

BIG RAPIDS     FOG       37  36  98 CALM      29.58S VSB<1/4
6HR MIN TEMP:  37; 6HR MAX TEMP:  43;

COLDWATER      FOG       49  49 100 E8        29.60F VSB 3/4
6HR MIN TEMP:  48; 6HR MAX TEMP:  53;

HOLLAND        CLEAR     40  37  89 CALM      29.59F
6HR MIN TEMP:  39; 6HR MAX TEMP:  53;

GRAND RAPIDS   FOG       37  35  92 S5        29.59F VSB 1/4 WCI  33
6HR MIN TEMP:  36; 6HR MAX TEMP:  51;

KALAMAZOO      FOG       40  37  89 CALM      29.59F VSB<1/4
6HR MIN TEMP:  40; 6HR MAX TEMP:  54;

MARSHALL       FOG       47  46  98 CALM      29.59F VSB 1
6HR MIN TEMP:  47; 6HR MAX TEMP:  54;

MOUNT PLEASANT FOG       37  37  99 CALM      29.58S VSB<1/4
6HR MIN TEMP:  37; 6HR MAX TEMP:  43;

MUSKEGON       FOG       41  41 100 CALM      29.59S VSB 1/4
6HR MIN TEMP:  36; 6HR MAX TEMP:  53;

STURGIS        FOG       44  44  99 CALM      29.59F VSB 1/4
6HR MIN TEMP:  44; 6HR MAX TEMP:  51;

$$
MIZ016>042-220700-
NORTHERN LOWER MICHIGAN

CITY           SKY/WX    TMP DP  RH WIND       PRES   REMARKS
ALPENA         FOG       38  37  97 E5        29.60F VSB 1/2 WCI  34
6HR MIN TEMP:  35; 6HR MAX TEMP:  38;

BEAVER ISLAND  CLOUDY    37  37 100 E6        29.56S FOG     WCI  32
6HR MIN TEMP:  35; 6HR MAX TEMP:  38;

BELLAIRE       CLOUDY    36  35  99 CALM      29.58S FOG
6HR MIN TEMP:  35; 6HR MAX TEMP:  43;

CADILLAC       FOG       40  39  97 S5        29.56S VSB 1/4
CHARLEVOIX     CLOUDY    40  40 100 SE3       29.59S FOG
GAYLORD        FOG       39  36  89 CALM      29.56F VSB 1/4
6HR MIN TEMP:  39; 6HR MAX TEMP:  41; 6HR PCP:  0.02;

HOUGHTON LAKE  FOG       40  40 100 SW7       29.57S VSB 1/4
6HR MIN TEMP:  40; 6HR MAX TEMP:  43; 6HR PCP:  0.03;

MANISTEE       FOG       35  35 100 CALM      29.57S VSB 1/4
OSCODA         FOG       38  37  97 CALM      29.60R VSB 1/4
6HR MIN TEMP:  37; 6HR MAX TEMP:  40;

PELLSTON       CLOUDY    37  35  92 S3        29.58F FOG
6HR MIN TEMP:  36; 6HR MAX TEMP:  38; 6HR PCP:  0.03;

TRAVERSE CITY  CLOUDY    43  42  97 CALM      29.56S FOG
6HR MIN TEMP:  42; 6HR MAX TEMP:  45;

LUDINGTON      FOG       37  37 100 CALM      29.57S VSB<1/4
6HR MIN TEMP:  36; 6HR MAX TEMP:  47;

$$
MIZ007>008-015-220700-
EASTERN UPPER MICHIGAN

CITY           SKY/WX    TMP DP  RH WIND       PRES   REMARKS
KINROSS        FOG       35  35 100 E9        29.59F VSB 3/4 WCI  28
6HR MIN TEMP:  34; 6HR MAX TEMP:  35; 6HR PCP:  0.04;

MACKINAC ISLAN FOG       35  35 100 E12G18    29.58F VSB 1/4 WCI  27
6HR MIN TEMP:  35; 6HR MAX TEMP:  36;

NEWBERRY       CLOUDY    36  35  96 SE9       29.56S FOG     WCI  29
6HR MIN TEMP:  34; 6HR MAX TEMP:  36;

S. S. MARIE    FOG       36  36 100 E5        29.61S VSB 1/2 WCI  32
6HR MIN TEMP:  36; 6HR MAX TEMP:  37; 6HR PCP:  0.03;

$$
MIZ004>006-011>014-085-220700-
CENTRAL UPPER MICHIGAN

CITY           SKY/WX    TMP DP  RH WIND       PRES   REMARKS
MANISTIQUE     FOG       36  35  96 E9        29.54S VSB 1/2 WCI  29
6HR MIN TEMP:  34; 6HR MAX TEMP:  36;

ESCANABA       FOG       34  34 100 CALM      29.53S VSB 1/4
6HR MIN TEMP:  34; 6HR MAX TEMP:  36; 6HR PCP:  0.01;

SAWYER-GWINN   SNOW      33  33  99 N5        29.52R VSB 1/4 WCI  29
6HR MIN TEMP:  33; 6HR MAX TEMP:  35;

$$
MIZ001>003-009>011-084-220700-
WESTERN UPPER MICHIGAN

CITY           SKY/WX    TMP DP  RH WIND       PRES   REMARKS
IRON MOUNTAIN  FOG       33  32  96 CALM      29.51R VSB 1/4
6HR MIN TEMP:  33; 6HR MAX TEMP:  35;

HOUGHTON       FOG       35  33  92 E5        29.51S VSB 1/4 WCI  31
6HR MIN TEMP:  34; 6HR MAX TEMP:  35; 6HR PCP:  0.25;

COPPER HARBOR    N/A     37  36  96 CALM      29.54R
6HR MIN TEMP:  36; 6HR MAX TEMP:  37; 6HR PCP:  0.32;

IRONWOOD       CLOUDY    35  34  96 CALM      29.51S FOG
6HR MIN TEMP:  35; 6HR MAX TEMP:  36; 6HR PCP:  0.14;

$$

ABBREVIATIONS USED IN REMARKS
   TC - TEMPERATURE IN CELSIUS
  WCI - WIND CHILL INDEX
   HX - HEAT INDEX
  VSB - VISIBILITY





USA.gov is the U.S. government's official web portal to all federal, state and local government web resources and services.